| time (UTC) | temp C | wind direction | speed KPH | gust KPH | rain 1hr cm | rain 24hr cm | rain mn cm | humidity % | barometer mb |
| 20260510184015 | 12 | 360 | 1.6 | 14.5 | 0.00 | 0.71 | 0.61 | 71 | 1012.3 |
| 20260510183515 | 12 | 225 | 4.8 | 19.3 | 0.00 | 0.71 | 0.61 | 70 | 1012.4 |
| 20260510183028 | 13 | 207 | 4.8 | 22.5 | 0.00 | 0.71 | 0.61 | 69 | 1012.4 |
| 20260510182515 | 13 | 189 | 4.8 | 22.5 | 0.00 | 0.71 | 0.61 | 68 | 1012.4 |
| 20260510182013 | 13 | 220 | 4.8 | 24.1 | 0.00 | 0.71 | 0.61 | 68 | 1012.4 |
| 20260510181540 | 13 | 360 | 6.4 | 24.1 | 0.00 | 0.71 | 0.61 | 66 | 1012.4 |
| 20260510181016 | 13 | 200 | 6.4 | 22.5 | 0.00 | 0.71 | 0.61 | 66 | 1012.4 |
| 20260510180516 | 13 | 209 | 4.8 | 22.5 | 0.00 | 0.71 | 0.61 | 65 | 1012.3 |
| 20260510180029 | 13 | 360 | 3.2 | 20.9 | 0.00 | 0.71 | 0.61 | 66 | 1012.3 |
| 20260510175515 | 13 | 184 | 3.2 | 20.9 | 0.00 | 0.81 | 0.61 | 67 | 1012.3 |
| 20260510175015 | 13 | 219 | 4.8 | 20.9 | 0.00 | 0.81 | 0.61 | 66 | 1012.3 |
| 20260510174532 | 13 | 360 | 8.0 | 22.5 | 0.00 | 0.81 | 0.61 | 66 | 1012.1 |
| 20260510174017 | 13 | 209 | 4.8 | 22.5 | 0.00 | 0.81 | 0.61 | 65 | 1012.1 |
| 20260510173516 | 13 | 243 | 8.0 | 25.7 | 0.00 | 0.81 | 0.61 | 66 | 1012.1 |
| 20260510173033 | 13 | 219 | 8.0 | 25.7 | 0.00 | 0.81 | 0.61 | 66 | 1012.1 |
| 20260510172512 | 13 | 360 | 3.2 | 22.5 | 0.00 | 0.81 | 0.61 | 65 | 1012.0 |
| 20260510172013 | 13 | 203 | 8.0 | 20.9 | 0.00 | 0.81 | 0.61 | 66 | 1012.0 |
| 20260510171536 | 13 | 236 | 8.0 | 20.9 | 0.00 | 0.81 | 0.61 | 65 | 1012.0 |
| 20260510171012 | 13 | 236 | 3.2 | 20.9 | 0.00 | 0.81 | 0.61 | 67 | 1011.9 |
| 20260510170514 | 13 | 235 | 6.4 | 20.9 | 0.00 | 0.81 | 0.61 | 67 | 1011.8 |
| 20260510170030 | 13 | 240 | 9.7 | 22.5 | 0.00 | 0.81 | 0.61 | 65 | 1011.9 |
| 20260510165517 | 13 | 247 | 9.7 | 24.1 | 0.00 | 0.81 | 0.61 | 65 | 1011.8 |
| 20260510165018 | 13 | 241 | 6.4 | 24.1 | 0.00 | 0.81 | 0.61 | 64 | 1011.9 |
| 20260510164532 | 13 | 214 | 8.0 | 27.4 | 0.00 | 0.81 | 0.61 | 65 | 1012.1 |
| 20260510164014 | 13 | 207 | 9.7 | 27.4 | 0.00 | 0.81 | 0.61 | 65 | 1012.2 |
| 20260510163514 | 14 | 261 | 9.7 | 30.6 | 0.00 | 0.81 | 0.61 | 64 | 1012.2 |
| 20260510163032 | 14 | 252 | 11.3 | 32.2 | 0.00 | 0.81 | 0.61 | 63 | 1012.1 |
| 20260510162514 | 14 | 0 | 12.9 | 32.2 | 0.00 | 0.81 | 0.61 | 64 | 1011.9 |
| 20260510162018 | 14 | 202 | 6.4 | 24.1 | 0.00 | 0.81 | 0.61 | 66 | 1011.8 |
| 20260510161531 | 14 | 233 | 9.7 | 25.7 | 0.00 | 0.81 | 0.61 | 66 | 1011.9 |
| 20260510161015 | 15 | 254 | 11.3 | 25.7 | 0.00 | 0.81 | 0.61 | 66 | 1011.9 |
| 20260510160516 | 15 | 227 | 11.3 | 25.7 | 0.00 | 0.81 | 0.61 | 66 | 1011.9 |
| 20260510160036 | 15 | 232 | 6.4 | 19.3 | 0.00 | 0.81 | 0.61 | 67 | 1011.8 |
| 20260510155515 | 15 | 240 | 1.6 | 22.5 | 0.00 | 0.84 | 0.61 | 69 | 1011.8 |
| 20260510155012 | 14 | 0 | 3.2 | 32.2 | 0.00 | 0.84 | 0.61 | 70 | 1011.8 |
| 20260510154533 | 14 | 212 | 9.7 | 32.2 | 0.00 | 0.84 | 0.61 | 68 | 1011.9 |
| 20260510154014 | 14 | 290 | 14.5 | 32.2 | 0.00 | 0.84 | 0.61 | 68 | 1011.9 |
| 20260510153514 | 14 | 224 | 8.0 | 29.0 | 0.00 | 0.84 | 0.61 | 67 | 1011.9 |
| 20260510153029 | 14 | 202 | 11.3 | 29.0 | 0.00 | 0.84 | 0.61 | 67 | 1012.1 |
| 20260510152513 | 13 | 255 | 11.3 | 29.0 | 0.00 | 0.84 | 0.61 | 73 | 1012.1 |
| 20260510152014 | 13 | 257 | 9.7 | 25.7 | 0.00 | 0.84 | 0.61 | 71 | 1012.2 |
| 20260510151539 | 13 | 229 | 9.7 | 25.7 | 0.00 | 0.84 | 0.61 | 74 | 1012.1 |
| 20260510151014 | 13 | 232 | 11.3 | 25.7 | 0.00 | 0.84 | 0.61 | 75 | 1012.1 |
| 20260510150514 | 13 | 217 | 9.7 | 24.1 | 0.00 | 0.84 | 0.61 | 75 | 1012.4 |
| 20260510150037 | 13 | 205 | 12.9 | 24.1 | 0.00 | 0.84 | 0.61 | 74 | 1012.3 |
| 20260510145515 | 13 | 236 | 4.8 | 24.1 | 0.00 | 0.84 | 0.61 | 77 | 1012.4 |
| 20260510145015 | 13 | 235 | 9.7 | 24.1 | 0.00 | 0.84 | 0.61 | 78 | 1012.7 |
| 20260510144534 | 13 | 231 | 4.8 | 24.1 | 0.00 | 0.84 | 0.61 | 79 | 1012.4 |
| 20260510144015 | 12 | 254 | 6.4 | 24.1 | 0.00 | 0.84 | 0.61 | 79 | 1012.4 |
| 20260510143513 | 12 | 211 | 9.7 | 24.1 | 0.00 | 0.84 | 0.61 | 78 | 1012.5 |
| 20260510143037 | 12 | 252 | 8.0 | 22.5 | 0.00 | 0.84 | 0.61 | 79 | 1012.5 |
| 20260510142517 | 12 | 219 | 9.7 | 22.5 | 0.00 | 0.84 | 0.61 | 79 | 1012.5 |
| 20260510142018 | 12 | 226 | 6.4 | 24.1 | 0.00 | 0.84 | 0.61 | 81 | 1012.5 |
| 20260510141532 | 12 | 208 | 8.0 | 24.1 | 0.00 | 0.84 | 0.61 | 79 | 1012.5 |
| 20260510141014 | 13 | 209 | 9.7 | 24.1 | 0.00 | 0.84 | 0.61 | 81 | 1012.4 |
| 20260510140513 | 13 | 236 | 8.0 | 20.9 | 0.00 | 0.84 | 0.61 | 80 | 1012.5 |
| 20260510140030 | 13 | 240 | 8.0 | 20.9 | 0.00 | 0.84 | 0.61 | 81 | 1012.5 |
| 20260510135515 | 13 | 209 | 8.0 | 20.9 | 0.00 | 1.30 | 0.61 | 81 | 1012.4 |
| 20260510135016 | 13 | 229 | 8.0 | 20.9 | 0.00 | 1.30 | 0.61 | 80 | 1012.4 |
| 20260510134530 | 13 | 188 | 6.4 | 20.9 | 0.00 | 1.30 | 0.61 | 80 | 1012.4 |
| 20260510134011 | 13 | 234 | 8.0 | 19.3 | 0.00 | 1.30 | 0.61 | 81 | 1012.1 |
| 20260510133514 | 13 | 230 | 3.2 | 19.3 | 0.00 | 1.30 | 0.61 | 82 | 1012.2 |
| 20260510133031 | 13 | 184 | 8.0 | 20.9 | 0.00 | 1.30 | 0.61 | 83 | 1012.2 |
| 20260510132514 | 13 | 179 | 9.7 | 20.9 | 0.00 | 1.30 | 0.61 | 84 | 1012.2 |
| 20260510132012 | 12 | 213 | 6.4 | 19.3 | 0.00 | 1.30 | 0.61 | 88 | 1012.2 |
| 20260510131530 | 12 | 205 | 8.0 | 19.3 | 0.00 | 1.30 | 0.61 | 87 | 1012.5 |
| 20260510131015 | 11 | 225 | 4.8 | 17.7 | 0.00 | 1.30 | 0.61 | 87 | 1012.6 |
| 20260510130517 | 11 | 189 | 6.4 | 24.1 | 0.00 | 1.30 | 0.61 | 87 | 1012.5 |
| 20260510130029 | 11 | 213 | 4.8 | 24.1 | 0.00 | 1.30 | 0.61 | 86 | 1012.6 |
| 20260510125516 | 11 | 196 | 8.0 | 19.3 | 0.00 | 1.32 | 0.61 | 86 | 1012.8 |
| 20260510125014 | 11 | 194 | 6.4 | 19.3 | 0.00 | 1.32 | 0.61 | 86 | 1012.8 |
| 20260510124530 | 11 | 189 | 4.8 | 19.3 | 0.00 | 1.32 | 0.61 | 86 | 1012.9 |
| 20260510124015 | 12 | 200 | 8.0 | 19.3 | 0.00 | 1.32 | 0.61 | 86 | 1012.8 |
| 20260510123514 | 12 | 183 | 4.8 | 17.7 | 0.00 | 1.32 | 0.61 | 87 | 1012.7 |
| 20260510123030 | 12 | 238 | 4.8 | 11.3 | 0.00 | 1.32 | 0.61 | 89 | 1012.5 |
| 20260510122513 | 11 | 193 | 4.8 | 16.1 | 0.00 | 1.32 | 0.61 | 90 | 1012.6 |
| 20260510122011 | 11 | 184 | 1.6 | 20.9 | 0.00 | 1.32 | 0.61 | 88 | 1012.7 |
| 20260510121532 | 11 | 0 | 3.2 | 20.9 | 0.00 | 1.32 | 0.61 | 89 | 1012.8 |
| 20260510121014 | 12 | 186 | 4.8 | 19.3 | 0.00 | 1.32 | 0.61 | 90 | 1012.9 |
| 20260510120520 | 12 | 360 | 3.2 | 19.3 | 0.00 | 1.32 | 0.61 | 90 | 1012.9 |
| 20260510120030 | 12 | 217 | 0.0 | 17.7 | 0.00 | 1.32 | 0.61 | 91 | 1013.1 |
| 20260510115515 | 11 | 238 | 3.2 | 19.3 | 0.15 | 1.32 | 0.61 | 90 | 1013.1 |
| 20260510115018 | 11 | 247 | 3.2 | 24.1 | 0.30 | 1.32 | 0.61 | 89 | 1013.2 |
| 20260510114530 | 11 | 262 | 8.0 | 24.1 | 0.30 | 1.30 | 0.58 | 88 | 1013.3 |
| 20260510114013 | 12 | 235 | 8.0 | 24.1 | 0.33 | 1.30 | 0.58 | 89 | 1013.3 |
| 20260510113515 | 12 | 244 | 6.4 | 24.1 | 0.36 | 1.30 | 0.58 | 89 | 1013.0 |
| 20260510113030 | 12 | 238 | 8.0 | 24.1 | 0.36 | 1.30 | 0.58 | 91 | 1012.8 |
| 20260510112516 | 12 | 229 | 6.4 | 19.3 | 0.36 | 1.30 | 0.58 | 92 | 1012.5 |
| 20260510112017 | 11 | 0 | 3.2 | 8.0 | 0.36 | 1.30 | 0.58 | 92 | 1012.4 |
| 20260510111530 | 10 | 0 | 0.0 | 12.9 | 0.36 | 1.30 | 0.58 | 91 | 1012.5 |
| 20260510111011 | 10 | 0 | 0.0 | 17.7 | 0.36 | 1.30 | 0.58 | 91 | 1012.6 |
| 20260510110515 | 10 | 252 | 3.2 | 17.7 | 0.43 | 1.30 | 0.58 | 90 | 1012.8 |
| 20260510110032 | 10 | 251 | 4.8 | 25.7 | 0.46 | 1.30 | 0.56 | 88 | 1012.8 |
| 20260510105515 | 11 | 271 | 9.7 | 25.7 | 0.30 | 1.14 | 0.43 | 85 | 1013.2 |
| 20260510105016 | 12 | 245 | 8.0 | 25.7 | 0.15 | 0.99 | 0.28 | 89 | 1012.9 |
| 20260510104532 | 12 | 189 | 4.8 | 20.9 | 0.15 | 0.99 | 0.28 | 89 | 1012.1 |
| 20260510104015 | 12 | 207 | 4.8 | 19.3 | 0.10 | 0.94 | 0.23 | 89 | 1012.0 |
| 20260510103514 | 12 | 360 | 1.6 | 16.1 | 0.10 | 0.94 | 0.23 | 89 | 1011.9 |
| 20260510103031 | 12 | 182 | 4.8 | 16.1 | 0.10 | 0.94 | 0.23 | 89 | 1012.1 |
| 20260510102515 | 12 | 186 | 4.8 | 14.5 | 0.10 | 0.94 | 0.23 | 89 | 1012.1 |
| 20260510102016 | 12 | 194 | 4.8 | 17.7 | 0.10 | 0.94 | 0.23 | 89 | 1012.3 |
| 20260510101532 | 12 | 189 | 4.8 | 20.9 | 0.10 | 0.94 | 0.23 | 88 | 1012.4 |
| 20260510101015 | 12 | 360 | 6.4 | 24.1 | 0.08 | 0.94 | 0.20 | 86 | 1012.3 |
| 20260510100516 | 12 | 210 | 8.0 | 33.8 | 0.00 | 0.84 | 0.13 | 83 | 1012.4 |
| 20260510100030 | 13 | 179 | 17.7 | 33.8 | 0.00 | 0.84 | 0.10 | 78 | 1012.3 |
| 20260510095519 | 14 | 177 | 11.3 | 25.7 | 0.00 | 0.84 | 0.10 | 78 | 1012.2 |
| 20260510095017 | 15 | 162 | 8.0 | 27.4 | 0.00 | 0.84 | 0.10 | 81 | 1012.2 |
| 20260510094543 | 13 | 188 | 4.8 | 27.4 | 0.00 | 0.84 | 0.10 | 82 | 1012.2 |
| 20260510094012 | 13 | 167 | 9.7 | 27.4 | 0.00 | 0.84 | 0.10 | 81 | 1012.5 |
| 20260510093512 | 14 | 171 | 9.7 | 27.4 | 0.00 | 0.84 | 0.10 | 81 | 1012.7 |
| 20260510093034 | 14 | 198 | 4.8 | 27.4 | 0.00 | 0.84 | 0.10 | 83 | 1012.7 |
| 20260510092520 | 13 | 178 | 8.0 | 22.5 | 0.00 | 0.84 | 0.10 | 83 | 1012.7 |
| 20260510092012 | 13 | 190 | 6.4 | 22.5 | 0.00 | 0.84 | 0.10 | 84 | 1012.7 |
| 20260510091539 | 13 | 205 | 4.8 | 22.5 | 0.00 | 0.84 | 0.10 | 85 | 1012.8 |
| 20260510091013 | 13 | 209 | 6.4 | 22.5 | 0.00 | 0.84 | 0.10 | 84 | 1012.8 |
| 20260510090514 | 13 | 207 | 8.0 | 24.1 | 0.00 | 0.84 | 0.10 | 85 | 1012.6 |
| 20260510090033 | 13 | 182 | 4.8 | 24.1 | 0.00 | 0.84 | 0.10 | 85 | 1012.7 |
| 20260510085512 | 13 | 184 | 8.0 | 24.1 | 0.00 | 0.84 | 0.10 | 85 | 1012.8 |
| 20260510085014 | 12 | 150 | 4.8 | 29.0 | 0.00 | 0.84 | 0.10 | 87 | 1012.8 |
| 20260510084534 | 12 | 158 | 12.9 | 29.0 | 0.00 | 0.84 | 0.10 | 87 | 1012.8 |
| 20260510084014 | 12 | 194 | 9.7 | 19.3 | 0.00 | 0.84 | 0.10 | 88 | 1012.8 |
| 20260510083511 | 12 | 173 | 3.2 | 14.5 | 0.00 | 0.84 | 0.10 | 90 | 1012.9 |
| 20260510083047 | 12 | 167 | 3.2 | 17.7 | 0.00 | 0.84 | 0.10 | 90 | 1012.8 |
| 20260510082514 | 11 | 156 | 3.2 | 17.7 | 0.00 | 0.84 | 0.10 | 90 | 1012.8 |
| 20260510082020 | 11 | 199 | 3.2 | 11.3 | 0.00 | 0.84 | 0.10 | 91 | 1012.8 |
| 20260510081528 | 11 | 159 | 3.2 | 14.5 | 0.00 | 0.84 | 0.10 | 90 | 1012.9 |
| 20260510081015 | 11 | 178 | 3.2 | 16.1 | 0.00 | 0.84 | 0.10 | 91 | 1013.0 |
| 20260510080515 | 11 | 193 | 3.2 | 16.1 | 0.00 | 0.84 | 0.10 | 91 | 1013.2 |
| 20260510080032 | 11 | 139 | 3.2 | 14.5 | 0.00 | 0.84 | 0.10 | 91 | 1013.0 |
| 20260510075511 | 11 | 157 | 4.8 | 14.5 | 0.00 | 0.84 | 0.10 | 90 | 1013.1 |
| 20260510075011 | 11 | 173 | 6.4 | 14.5 | 0.00 | 0.84 | 0.10 | 90 | 1013.1 |
| 20260510074529 | 11 | 169 | 8.0 | 14.5 | 0.00 | 0.84 | 0.10 | 90 | 1013.2 |
| 20260510074019 | 11 | 165 | 6.4 | 14.5 | 0.00 | 0.84 | 0.10 | 90 | 1013.2 |
| 20260510073514 | 11 | 168 | 4.8 | 14.5 | 0.00 | 0.84 | 0.10 | 89 | 1013.2 |
| 20260510073035 | 11 | 186 | 4.8 | 16.1 | 0.00 | 0.84 | 0.10 | 89 | 1013.2 |
| 20260510072516 | 11 | 196 | 6.4 | 20.9 | 0.00 | 0.84 | 0.10 | 90 | 1013.1 |
| 20260510072012 | 11 | 174 | 9.7 | 20.9 | 0.00 | 0.84 | 0.10 | 90 | 1013.1 |
| 20260510071535 | 11 | 165 | 8.0 | 19.3 | 0.00 | 0.84 | 0.10 | 91 | 1013.1 |
| 20260510071019 | 11 | 178 | 6.4 | 14.5 | 0.00 | 0.84 | 0.10 | 92 | 1013.0 |
| 20260510070515 | 10 | 200 | 4.8 | 12.9 | 0.00 | 0.84 | 0.10 | 92 | 1012.9 |
| 20260510070028 | 10 | 178 | 3.2 | 14.5 | 0.00 | 0.84 | 0.10 | 92 | 1013.0 |
| 20260510065515 | 10 | 0 | 3.2 | 14.5 | 0.00 | 0.84 | 0.10 | 92 | 1012.8 |
| 20260510065015 | 10 | 165 | 3.2 | 22.5 | 0.00 | 0.84 | 0.10 | 92 | 1012.9 |
| 20260510064529 | 10 | 196 | 6.4 | 22.5 | 0.00 | 0.84 | 0.10 | 92 | 1012.8 |
| 20260510064012 | 10 | 172 | 6.4 | 19.3 | 0.00 | 0.84 | 0.10 | 92 | 1012.9 |
| 20260510063515 | 10 | 0 | 6.4 | 19.3 | 0.00 | 0.84 | 0.10 | 92 | 1012.8 |
| 20260510063030 | 10 | 195 | 4.8 | 17.7 | 0.00 | 0.84 | 0.10 | 92 | 1012.8 |
| 20260510062511 | 10 | 188 | 4.8 | 16.1 | 0.00 | 0.84 | 0.10 | 93 | 1012.8 |
| 20260510062012 | 10 | 181 | 6.4 | 16.1 | 0.00 | 0.84 | 0.10 | 93 | 1012.6 |
| 20260510061534 | 9 | 171 | 4.8 | 14.5 | 0.00 | 0.84 | 0.10 | 93 | 1012.7 |
| 20260510061012 | 9 | 189 | 4.8 | 14.5 | 0.00 | 0.84 | 0.10 | 93 | 1012.6 |
| 20260510060512 | 9 | 163 | 3.2 | 19.3 | 0.00 | 0.84 | 0.10 | 93 | 1012.7 |
| 20260510060040 | 9 | 186 | 6.4 | 19.3 | 0.00 | 0.84 | 0.10 | 93 | 1012.7 |
| 20260510055511 | 9 | 0 | 1.6 | 14.5 | 0.00 | 0.84 | 0.10 | 93 | 1012.7 |
| 20260510055013 | 8 | 174 | 1.6 | 14.5 | 0.00 | 0.84 | 0.10 | 93 | 1012.7 |
| 20260510054538 | 8 | 196 | 3.2 | 9.7 | 0.00 | 0.84 | 0.10 | 93 | 1012.8 |
| 20260510054016 | 8 | 162 | 0.0 | 11.3 | 0.00 | 0.84 | 0.10 | 93 | 1012.8 |
| 20260510053512 | 8 | 0 | 3.2 | 11.3 | 0.00 | 0.84 | 0.10 | 93 | 1012.7 |
| 20260510053030 | 8 | 159 | 3.2 | 11.3 | 0.00 | 0.84 | 0.10 | 93 | 1012.5 |
| 20260510052516 | 8 | 0 | 0.0 | 11.3 | 0.00 | 0.84 | 0.10 | 93 | 1012.5 |
| 20260510052013 | 8 | 0 | 0.0 | 11.3 | 0.00 | 0.84 | 0.10 | 93 | 1012.5 |
| 20260510051535 | 8 | 159 | 1.6 | 8.0 | 0.00 | 0.84 | 0.10 | 93 | 1012.6 |
| 20260510051012 | 8 | 0 | 0.0 | 9.7 | 0.00 | 0.84 | 0.10 | 93 | 1012.4 |
| 20260510050513 | 8 | 168 | 3.2 | 9.7 | 0.00 | 0.84 | 0.10 | 93 | 1012.6 |
| 20260510050030 | 8 | 0 | 0.0 | 8.0 | 0.00 | 0.84 | 0.10 | 93 | 1012.4 |
| 20260510045519 | 8 | 0 | 0.0 | 9.7 | 0.00 | 0.84 | 0.10 | 92 | 1012.6 |
| 20260510045012 | 8 | 0 | 1.6 | 9.7 | 0.00 | 0.84 | 0.10 | 92 | 1012.6 |
| 20260510044532 | 8 | 157 | 0.0 | 9.7 | 0.00 | 0.84 | 0.10 | 93 | 1012.6 |
| 20260510044011 | 8 | 161 | 1.6 | 9.7 | 0.00 | 0.84 | 0.10 | 93 | 1012.6 |
| 20260510043511 | 8 | 0 | 3.2 | 8.0 | 0.00 | 0.84 | 0.10 | 92 | 1012.6 |
| 20260510043033 | 8 | 146 | 0.0 | 6.4 | 0.00 | 0.84 | 0.10 | 92 | 1012.7 |
| 20260510042517 | 8 | 0 | 0.0 | 8.0 | 0.00 | 0.84 | 0.10 | 92 | 1012.5 |
| 20260510042015 | 8 | 0 | 1.6 | 9.7 | 0.00 | 0.84 | 0.10 | 92 | 1012.5 |
| 20260510041529 | 8 | 150 | 3.2 | 9.7 | 0.00 | 0.84 | 0.10 | 92 | 1012.7 |
| 20260510041014 | 8 | 143 | 4.8 | 9.7 | 0.00 | 0.84 | 0.10 | 92 | 1012.5 |
| 20260510040511 | 8 | 0 | 0.0 | 9.7 | 0.00 | 0.84 | 0.10 | 92 | 1012.6 |
| 20260510040032 | 8 | 0 | 3.2 | 9.7 | 0.00 | 0.84 | 0.10 | 92 | 1012.5 |
| 20260510035515 | 8 | 0 | 3.2 | 9.7 | 0.00 | 0.84 | 0.10 | 92 | 1012.5 |
| 20260510035012 | 8 | 162 | 0.0 | 8.0 | 0.00 | 0.84 | 0.10 | 92 | 1012.6 |
| 20260510034529 | 8 | 163 | 0.0 | 6.4 | 0.00 | 0.84 | 0.10 | 92 | 1012.7 |
| 20260510034012 | 8 | 163 | 1.6 | 8.0 | 0.00 | 0.84 | 0.10 | 92 | 1012.7 |
| 20260510033517 | 8 | 0 | 1.6 | 8.0 | 0.00 | 0.84 | 0.10 | 92 | 1012.7 |
| 20260510033030 | 8 | 167 | 1.6 | 12.9 | 0.00 | 0.84 | 0.10 | 92 | 1012.8 |
| 20260510032515 | 8 | 170 | 4.8 | 12.9 | 0.00 | 0.84 | 0.10 | 92 | 1012.9 |
| 20260510032014 | 9 | 155 | 4.8 | 12.9 | 0.00 | 0.84 | 0.10 | 92 | 1013.0 |
| 20260510031530 | 9 | 150 | 6.4 | 12.9 | 0.00 | 0.84 | 0.10 | 92 | 1013.1 |
| 20260510031014 | 9 | 0 | 3.2 | 9.7 | 0.00 | 0.84 | 0.10 | 92 | 1013.1 |
| 20260510030517 | 9 | 169 | 1.6 | 8.0 | 0.00 | 0.84 | 0.10 | 92 | 1013.2 |
| 20260510030029 | 9 | 171 | 1.6 | 8.0 | 0.00 | 0.84 | 0.10 | 92 | 1013.2 |
| 20260510025515 | 9 | 177 | 0.0 | 8.0 | 0.00 | 0.84 | 0.10 | 92 | 1013.1 |
| 20260510025014 | 9 | 0 | 0.0 | 6.4 | 0.00 | 0.84 | 0.10 | 92 | 1013.2 |
| 20260510024532 | 9 | 0 | 0.0 | 6.4 | 0.00 | 0.84 | 0.10 | 92 | 1013.3 |
| 20260510024011 | 9 | 0 | 0.0 | 8.0 | 0.00 | 0.84 | 0.10 | 92 | 1013.2 |
| 20260510023511 | 9 | 0 | 1.6 | 8.0 | 0.00 | 0.84 | 0.10 | 92 | 1013.2 |
| 20260510023030 | 9 | 0 | 1.6 | 9.7 | 0.00 | 0.84 | 0.10 | 92 | 1013.1 |
| 20260510022514 | 10 | 0 | 0.0 | 9.7 | 0.00 | 0.84 | 0.10 | 92 | 1013.3 |
| 20260510022013 | 10 | 187 | 0.0 | 4.8 | 0.00 | 0.84 | 0.10 | 92 | 1013.3 |
| 20260510021528 | 10 | 0 | 0.0 | 6.4 | 0.00 | 0.84 | 0.10 | 92 | 1013.2 |
| 20260510021015 | 10 | 186 | 1.6 | 6.4 | 0.00 | 0.84 | 0.10 | 92 | 1013.0 |
| 20260510020520 | 10 | 188 | 0.0 | 4.8 | 0.00 | 0.84 | 0.10 | 92 | 1013.3 |
| 20260510020030 | 10 | 0 | 0.0 | 4.8 | 0.00 | 0.84 | 0.10 | 92 | 1013.2 |
| 20260510015516 | 10 | 0 | 0.0 | 4.8 | 0.00 | 0.84 | 0.10 | 92 | 1013.2 |
| 20260510015016 | 10 | 188 | 0.0 | 8.0 | 0.00 | 0.84 | 0.10 | 92 | 1013.2 |
| 20260510014530 | 10 | 188 | 0.0 | 8.0 | 0.00 | 0.84 | 0.10 | 92 | 1013.1 |
| 20260510014017 | 10 | 187 | 3.2 | 8.0 | 0.00 | 0.84 | 0.10 | 92 | 1013.3 |
| 20260510013517 | 10 | 179 | 1.6 | 9.7 | 0.00 | 0.84 | 0.10 | 92 | 1013.2 |
| 20260510013032 | 10 | 0 | 1.6 | 9.7 | 0.00 | 0.84 | 0.10 | 92 | 1013.2 |
| 20260510012516 | 10 | 0 | 1.6 | 9.7 | 0.00 | 0.84 | 0.10 | 92 | 1013.3 |
| 20260510012016 | 10 | 179 | 1.6 | 9.7 | 0.00 | 0.84 | 0.10 | 92 | 1013.2 |
| 20260510011531 | 9 | 179 | 0.0 | 11.3 | 0.00 | 0.84 | 0.10 | 92 | 1013.2 |
| 20260510011013 | 9 | 0 | 1.6 | 11.3 | 0.00 | 0.84 | 0.10 | 92 | 1013.2 |
| 20260510010517 | 9 | 184 | 3.2 | 9.7 | 0.00 | 0.84 | 0.10 | 92 | 1013.4 |
| 20260510010029 | 9 | 188 | 1.6 | 9.7 | 0.00 | 0.84 | 0.10 | 92 | 1013.3 |
| 20260510005516 | 9 | 0 | 0.0 | 11.3 | 0.00 | 0.84 | 0.10 | 92 | 1013.4 |
| 20260510005015 | 9 | 175 | 3.2 | 11.3 | 0.00 | 0.84 | 0.10 | 92 | 1013.5 |
| 20260510004532 | 9 | 182 | 1.6 | 14.5 | 0.00 | 0.81 | 0.08 | 92 | 1013.5 |
| 20260510004015 | 9 | 0 | 4.8 | 14.5 | 0.00 | 0.81 | 0.08 | 92 | 1013.5 |
| 20260510003515 | 9 | 192 | 4.8 | 14.5 | 0.03 | 0.81 | 0.08 | 91 | 1013.5 |
| 20260510003038 | 9 | 0 | 4.8 | 12.9 | 0.03 | 0.81 | 0.08 | 92 | 1013.6 |
| 20260510002515 | 9 | 193 | 1.6 | 6.4 | 0.03 | 0.81 | 0.08 | 92 | 1013.5 |
| 20260510002014 | 9 | 184 | 1.6 | 8.0 | 0.03 | 0.81 | 0.08 | 91 | 1013.6 |
| 20260510001530 | 9 | 0 | 0.0 | 9.7 | 0.03 | 0.81 | 0.08 | 91 | 1013.6 |
| 20260510001014 | 9 | 200 | 1.6 | 9.7 | 0.05 | 0.81 | 0.08 | 91 | 1013.5 |
| 20260510000514 | 9 | 188 | 3.2 | 9.7 | 0.05 | 0.81 | 0.08 | 91 | 1013.5 |
| 20260510000031 | 9 | 190 | 3.2 | 9.7 | 0.08 | 0.81 | 0.08 | 91 | 1013.4 |
| 20260509235513 | 9 | 196 | 0.0 | 14.5 | 0.08 | 0.81 | 0.08 | 91 | 1013.4 |
| 20260509235016 | 9 | 188 | 1.6 | 14.5 | 0.08 | 0.81 | 0.08 | 91 | 1013.6 |
| 20260509234538 | 10 | 192 | 6.4 | 14.5 | 0.08 | 0.81 | 0.08 | 91 | 1013.6 |
| 20260509234016 | 10 | 360 | 4.8 | 14.5 | 0.08 | 0.79 | 0.08 | 91 | 1013.6 |
| 20260509233514 | 10 | 188 | 3.2 | 12.9 | 0.05 | 0.76 | 0.05 | 91 | 1013.6 |
| 20260509233036 | 10 | 197 | 1.6 | 12.9 | 0.05 | 0.76 | 0.05 | 91 | 1013.6 |
| 20260509232515 | 10 | 0 | 4.8 | 12.9 | 0.05 | 0.76 | 0.05 | 91 | 1013.7 |
| 20260509232019 | 10 | 194 | 4.8 | 12.9 | 0.05 | 0.76 | 0.05 | 91 | 1013.7 |
| 20260509231533 | 10 | 194 | 3.2 | 12.9 | 0.05 | 0.76 | 0.05 | 91 | 1013.6 |
| 20260509231016 | 10 | 0 | 0.0 | 8.0 | 0.03 | 0.74 | 0.03 | 90 | 1013.5 |
| 20260509230516 | 10 | 0 | 1.6 | 8.0 | 0.03 | 0.74 | 0.03 | 91 | 1013.4 |
| 20260509230031 | 10 | 0 | 1.6 | 8.0 | 0.00 | 0.74 | 0.00 | 91 | 1013.6 |
| 20260509225515 | 10 | 207 | 1.6 | 16.1 | 0.00 | 0.71 | 0.00 | 91 | 1013.4 |
| 20260509225014 | 10 | 222 | 3.2 | 16.1 | 0.00 | 0.71 | 0.00 | 91 | 1013.3 |
| 20260509224534 | 10 | 0 | 4.8 | 12.9 | 0.00 | 0.71 | 0.00 | 91 | 1013.6 |
| 20260509224014 | 10 | 194 | 4.8 | 11.3 | 0.00 | 0.71 | 0.00 | 91 | 1013.3 |
| 20260509223516 | 10 | 180 | 3.2 | 9.7 | 0.00 | 0.71 | 0.00 | 91 | 1013.1 |
| 20260509223034 | 10 | 175 | 3.2 | 9.7 | 0.00 | 0.71 | 0.00 | 91 | 1013.1 |
| 20260509222515 | 10 | 182 | 1.6 | 8.0 | 0.00 | 0.71 | 0.00 | 91 | 1013.0 |
| 20260509222015 | 10 | 179 | 3.2 | 8.0 | 0.00 | 0.71 | 0.00 | 91 | 1012.9 |
| 20260509221533 | 10 | 0 | 1.6 | 8.0 | 0.00 | 0.71 | 0.00 | 91 | 1012.9 |
| 20260509221016 | 10 | 195 | 1.6 | 6.4 | 0.00 | 0.71 | 0.00 | 91 | 1012.9 |
| 20260509220515 | 10 | 201 | 0.0 | 4.8 | 0.03 | 0.71 | 0.00 | 91 | 1012.9 |
| 20260509220030 | 10 | 0 | 0.0 | 4.8 | 0.08 | 0.71 | 0.00 | 91 | 1012.9 |
| 20260509215516 | 10 | 212 | 0.0 | 4.8 | 0.08 | 0.71 | 0.71 | 90 | 1012.8 |
| 20260509215015 | 10 | 0 | 0.0 | 3.2 | 0.08 | 0.71 | 0.71 | 90 | 1012.7 |
| 20260509214529 | 10 | 0 | 0.0 | 3.2 | 0.08 | 0.71 | 0.71 | 90 | 1012.8 |
| 20260509214016 | 10 | 0 | 0.0 | 14.5 | 0.08 | 0.71 | 0.71 | 90 | 1012.7 |
| 20260509213517 | 10 | 0 | 3.2 | 14.5 | 0.08 | 0.71 | 0.71 | 90 | 1012.8 |
| 20260509213030 | 10 | 0 | 0.0 | 12.9 | 0.08 | 0.69 | 0.69 | 90 | 1012.9 |
| 20260509212512 | 10 | 0 | 1.6 | 14.5 | 0.08 | 0.69 | 0.69 | 89 | 1013.1 |
| 20260509212018 | 10 | 0 | 4.8 | 14.5 | 0.08 | 0.69 | 0.69 | 89 | 1013.1 |
| 20260509211532 | 10 | 268 | 1.6 | 19.3 | 0.08 | 0.69 | 0.69 | 88 | 1013.2 |
| 20260509211016 | 10 | 210 | 4.8 | 19.3 | 0.08 | 0.69 | 0.69 | 87 | 1013.0 |
| 20260509210520 | 11 | 216 | 3.2 | 37.0 | 0.05 | 0.66 | 0.66 | 86 | 1013.1 |
| 20260509210032 | 11 | 248 | 12.9 | 37.0 | 0.00 | 0.64 | 0.64 | 84 | 1013.0 |
| 20260509205516 | 11 | 205 | 8.0 | 19.3 | 0.00 | 0.61 | 0.61 | 84 | 1012.1 |
| 20260509205016 | 11 | 159 | 8.0 | 17.7 | 0.00 | 0.61 | 0.61 | 84 | 1011.4 |
| 20260509204536 | 11 | 159 | 6.4 | 19.3 | 0.00 | 0.61 | 0.61 | 85 | 1011.4 |
| 20260509204016 | 11 | 173 | 8.0 | 19.3 | 0.00 | 0.61 | 0.61 | 85 | 1011.4 |
| 20260509203515 | 11 | 165 | 6.4 | 19.3 | 0.00 | 0.61 | 0.61 | 85 | 1011.4 |
| 20260509203039 | 11 | 160 | 6.4 | 16.1 | 0.00 | 0.61 | 0.61 | 86 | 1011.1 |
| 20260509202516 | 12 | 199 | 6.4 | 20.9 | 0.00 | 0.61 | 0.61 | 86 | 1011.1 |
| 20260509202017 | 12 | 0 | 4.8 | 20.9 | 0.00 | 0.61 | 0.61 | 86 | 1010.9 |
| 20260509201532 | 12 | 161 | 6.4 | 20.9 | 0.00 | 0.61 | 0.61 | 86 | 1010.8 |
| 20260509201020 | 12 | 157 | 6.4 | 17.7 | 0.00 | 0.61 | 0.61 | 87 | 1010.8 |
| 20260509200515 | 12 | 190 | 6.4 | 14.5 | 0.00 | 0.61 | 0.61 | 87 | 1010.8 |
| 20260509200030 | 12 | 184 | 4.8 | 12.9 | 0.00 | 0.61 | 0.61 | 88 | 1010.7 |
| 20260509195516 | 12 | 143 | 6.4 | 12.9 | 0.00 | 0.61 | 0.61 | 88 | 1010.7 |
| 20260509195015 | 12 | 142 | 4.8 | 12.9 | 0.00 | 0.61 | 0.61 | 89 | 1010.5 |
| 20260509194531 | 12 | 159 | 3.2 | 12.9 | 0.00 | 0.61 | 0.61 | 89 | 1010.6 |
| 20260509194016 | 12 | 133 | 4.8 | 12.9 | 0.00 | 0.61 | 0.61 | 89 | 1010.4 |
| 20260509193520 | 12 | 151 | 3.2 | 9.7 | 0.00 | 0.61 | 0.61 | 89 | 1010.3 |
| 20260509193040 | 12 | 145 | 3.2 | 12.9 | 0.00 | 0.61 | 0.61 | 89 | 1010.2 |
| 20260509192516 | 12 | 152 | 4.8 | 12.9 | 0.00 | 0.61 | 0.61 | 89 | 1010.2 |
| 20260509192016 | 12 | 155 | 3.2 | 14.5 | 0.00 | 0.61 | 0.61 | 89 | 1010.0 |
| 20260509191539 | 12 | 128 | 6.4 | 14.5 | 0.00 | 0.61 | 0.61 | 89 | 1009.7 |
| 20260509191016 | 12 | 127 | 6.4 | 14.5 | 0.00 | 0.61 | 0.61 | 89 | 1009.7 |
| 20260509190515 | 12 | 147 | 6.4 | 12.9 | 0.00 | 0.61 | 0.61 | 88 | 1009.8 |
| 20260509190032 | 12 | 136 | 4.8 | 11.3 | 0.00 | 0.61 | 0.61 | 88 | 1010.0 |
| 20260509185516 | 12 | 137 | 3.2 | 11.3 | 0.00 | 0.61 | 0.61 | 88 | 1010.1 |
| 20260509185017 | 12 | 153 | 4.8 | 14.5 | 0.00 | 0.61 | 0.61 | 88 | 1010.0 |
| 20260509184533 | 12 | 144 | 4.8 | 14.5 | 0.00 | 0.61 | 0.61 | 88 | 1010.0 |